Orbital Elements at Epoch 2459200.5 (2020-Dec-17.0) TDB
Reference: JPL 14 (heliocentric ecliptic J2000)
Element | Value | Uncertainty (1-sigma) | Units |
e | .05176447728927248 | 6.2197e-08 | |
a | 2.775746688105065 | 2.0003e-08 | au |
q | 2.632061611707877 | 1.735e-07 | au |
i | 5.303105680244212 | 6.4667e-06 | deg |
node | 50.49987233359841 | 5.7043e-05 | deg |
peri | 126.8136241425158 | 7.6364e-05 | deg |
M | 227.2584676985456 | 5.4261e-05 | deg |
tp | 2459823.334266532551 (2022-Aug-31.83426653) | 0.00025736 | TDB |
period | 1689.149824205108 4.62 | 1.8258e-05 4.999e-08 | d yr |
n | .213124966679265 | 2.3037e-09 | deg/d |
Q | 2.919431764502253 | 2.1038e-08 | au |
|
| | Orbit Determination Parameters
Additional Information
|